Location: Clanezzo
(45.7500°N, 9.6000°E)
Time: 02:45:38
(UTC+00:00)

Cosmos 1125 Rocket - Pass Details

Date: 12 May 2021
Orbit: 758 x 779 km, 74.0° (Epoch: 18 June)

Event Time Altitude Azimuth Distance (km) Brightness Sun altitude
Exits shadow 22:50:23 47° 94° (E) 1,011 4.0 -25.6°
Drops below altitude 10° 22:55:04 10° 32° (NNE) 2,302 6.6 -25.7°
Sets 22:57:30 0° 27° (NNE) 3,230 7.6 -25.7°
